Вернуться в каталог

USA 380

АктивенВоенныеVLEO
NORAD 60163·PAYLOAD·🇺🇸 United States

Запущен Jun 29, 2024 с Vandenberg Space Force Base

Loading…

Ближайшие Пролёты (ближайшие 24 часа)

TLE

УстаревшееSource: Mike McCants

Эпоха: Aug 26, 2026, 01:19 UTC

1 60163U 24121F   26238.05544733 0.00000000  00000-0  00000-0 0    01
2 60163  70.0200 211.6305 0003000 100.1626 259.8373 14.96713239    06

Отслеживайте USA 380 в реальном времени с AllMySat

Download on the App Store